Find Starlink 33678

NORAD ID: 63509 Int'l Des: 2025-071 Owner: SPXS Country: US Constellation: starlink operational
LEOCIRCULAR

リアルタイム位置

3D地球を読み込み中...

Starlink 33678について

説明を読み込み中...

次回通過

Passes for default location (London). Set your location on the main map for personalized predictions.

高度履歴

Loading altitude history...

軌道要素

1 63509U 25071S 26124.61953206 .00025492 00000-0 83018-3 0 9990
2 63509 53.1594 240.0511 0000998 73.0754 287.0356 15.31709635 61061
Epoch: May 4, 2026 • Age: 4 hours

現在のステータス

高度 482.5 km
速度 7.62 km/s
衛星直下点 -35.78°S, 53.56°E
打ち上げ日 Apr 7, 2025
運用期間 1 years
タイプ internet

技術仕様

分類 Payload
質量 575.00 kg
乾燥質量 530.00 kg
総質量 575.00 kg
長さ 0.30 m
直径 4.10 m
スパン 29.00 m
形状 Box + pan
製造者 SPXS
バスタイプ Starlink V2MO
フェーズステータス In Orbit
所有者/国 SPXS/US

Most Searched